Time,TemperatureF,DewpointF,PressureIn,WindDirection,WindDirectionDegrees,WindSpeedMPH,WindSpeedGustMPH,Humidity,HourlyPrecipIn,Conditions,Clouds,dailyrainin,SoftwareType,DateUTC
2013-06-05 00:14:00,63.7,63.1,30.01,SE,135,2.7,-999.0,98,-99.99,,,0.00,Acu-Link.com,2013-06-05 04:14:00,
2013-06-05 00:29:00,62.8,62.2,30.02,SE,135,1.7,-999.0,98,-99.99,,,0.00,Acu-Link.com,2013-06-05 04:29:00,
2013-06-05 00:45:00,62.6,62.0,30.02,SSE,157,2.2,-999.0,98,-99.99,,,0.00,Acu-Link.com,2013-06-05 04:45:00,
2013-06-05 01:00:00,62.6,62.0,30.02,ESE,112,2.2,-999.0,98,-99.99,,,0.00,Acu-Link.com,2013-06-05 05:00:00,
2013-06-05 01:15:00,63.0,62.4,30.03,SSE,157,2.7,-999.0,98,-99.99,,,0.00,Acu-Link.com,2013-06-05 05:15:00,
2013-06-05 01:30:00,63.1,62.5,30.02,SSE,157,2.2,-999.0,98,-99.99,,,0.00,Acu-Link.com,2013-06-05 05:30:00,
2013-06-05 01:45:00,63.3,62.7,30.03,SSE,157,2.2,-999.0,98,-99.99,,,0.00,Acu-Link.com,2013-06-05 05:45:00,
2013-06-05 02:01:00,63.5,62.9,30.02,SSE,157,2.2,-999.0,98,-99.99,,,0.00,Acu-Link.com,2013-06-05 06:01:00,
2013-06-05 02:16:00,63.5,62.9,30.02,East,90,3.2,-999.0,98,-99.99,,,0.00,Acu-Link.com,2013-06-05 06:16:00,
2013-06-05 02:31:00,63.5,62.9,30.01,SSE,157,2.7,-999.0,98,-99.99,,,0.00,Acu-Link.com,2013-06-05 06:31:00,
2013-06-05 02:47:00,63.5,62.9,30.00,SSE,157,2.2,-999.0,98,-99.99,,,0.00,Acu-Link.com,2013-06-05 06:47:00,
2013-06-05 03:02:00,63.5,62.9,30.00,SSE,157,2.7,-999.0,98,-99.99,,,0.00,Acu-Link.com,2013-06-05 07:02:00,
2013-06-05 03:17:00,63.5,62.9,30.00,ESE,112,0.0,-999.0,98,-99.99,,,0.00,Acu-Link.com,2013-06-05 07:17:00,
2013-06-05 03:32:00,63.5,62.9,30.00,South,180,2.2,-999.0,98,-99.99,,,0.00,Acu-Link.com,2013-06-05 07:32:00,
2013-06-05 03:48:00,63.7,63.1,30.00,SSE,157,2.2,-999.0,98,-99.99,,,0.00,Acu-Link.com,2013-06-05 07:48:00,
2013-06-05 04:03:00,63.5,62.9,30.00,SSE,157,2.7,-999.0,98,-99.99,,,0.00,Acu-Link.com,2013-06-05 08:03:00,
2013-06-05 04:19:00,63.5,62.9,30.00,SSE,157,2.7,-999.0,98,-99.99,,,0.00,Acu-Link.com,2013-06-05 08:19:00,
2013-06-05 04:34:00,63.5,62.9,29.99,SSE,157,4.2,-999.0,98,-99.99,,,0.00,Acu-Link.com,2013-06-05 08:34:00,
2013-06-05 04:49:00,63.7,63.1,30.01,South,180,1.7,-999.0,98,-99.99,,,0.00,Acu-Link.com,2013-06-05 08:49:00,
2013-06-05 05:04:00,63.7,63.1,30.00,South,180,2.7,-999.0,98,-99.99,,,0.00,Acu-Link.com,2013-06-05 09:04:00,
2013-06-05 05:19:00,63.7,63.1,30.01,ESE,112,2.7,-999.0,98,-99.99,,,0.00,Acu-Link.com,2013-06-05 09:19:00,
2013-06-05 05:34:00,63.5,62.9,30.01,South,180,1.7,-999.0,98,-99.99,,,0.00,Acu-Link.com,2013-06-05 09:34:00,
2013-06-05 05:49:00,63.7,63.1,30.01,ESE,112,3.7,-999.0,98,-99.99,,,0.00,Acu-Link.com,2013-06-05 09:49:00,
2013-06-05 06:05:00,63.5,62.9,30.01,SSE,157,1.7,-999.0,98,-99.99,,,0.00,Acu-Link.com,2013-06-05 10:05:00,
2013-06-05 06:20:00,63.5,62.9,30.01,South,180,1.7,-999.0,98,-99.99,,,0.00,Acu-Link.com,2013-06-05 10:20:00,
2013-06-05 06:35:00,63.5,62.9,30.03,SSE,157,2.2,-999.0,98,-99.99,,,0.00,Acu-Link.com,2013-06-05 10:35:00,
2013-06-05 06:51:00,63.5,62.9,30.02,South,180,2.2,-999.0,98,-99.99,,,0.00,Acu-Link.com,2013-06-05 10:51:00,
2013-06-05 07:06:00,63.5,62.9,30.02,ESE,112,0.0,-999.0,98,-99.99,,,0.00,Acu-Link.com,2013-06-05 11:06:00,
2013-06-05 07:36:00,63.7,63.1,30.04,SE,135,1.1,-999.0,98,-99.99,,,0.00,Acu-Link.com,2013-06-05 11:36:00,
2013-06-05 07:52:00,64.2,63.6,30.04,South,180,2.7,-999.0,98,-99.99,,,0.00,Acu-Link.com,2013-06-05 11:52:00,
2013-06-05 08:07:00,64.4,63.8,30.05,ESE,112,2.2,-999.0,98,-99.99,,,0.00,Acu-Link.com,2013-06-05 12:07:00,
2013-06-05 08:22:00,64.4,63.8,30.04,East,90,3.7,-999.0,98,-99.99,,,0.00,Acu-Link.com,2013-06-05 12:22:00,
2013-06-05 08:37:00,64.4,63.8,30.03,SSE,157,5.3,-999.0,98,-99.99,,,0.00,Acu-Link.com,2013-06-05 12:37:00,
2013-06-05 08:53:00,65.1,64.5,30.04,ESE,112,3.2,-999.0,98,-99.99,,,0.00,Acu-Link.com,2013-06-05 12:53:00,
2013-06-05 09:08:00,65.1,64.5,30.04,ESE,112,1.1,-999.0,98,-99.99,,,0.00,Acu-Link.com,2013-06-05 13:08:00,
2013-06-05 09:23:00,65.7,65.1,30.04,ESE,112,3.2,-999.0,98,-99.99,,,0.00,Acu-Link.com,2013-06-05 13:23:00,
2013-06-05 09:38:00,65.8,65.2,30.04,SSE,157,3.2,-999.0,98,-99.99,,,0.00,Acu-Link.com,2013-06-05 13:38:00,
2013-06-05 09:54:00,67.1,66.5,30.04,SSE,157,3.2,-999.0,98,-99.99,,,0.00,Acu-Link.com,2013-06-05 13:54:00,
2013-06-05 10:09:00,68.9,68.3,30.03,ESE,112,1.7,-999.0,98,-99.99,,,0.00,Acu-Link.com,2013-06-05 14:09:00,
2013-06-05 10:24:00,69.4,68.8,30.02,SSE,157,2.2,-999.0,98,-99.99,,,0.00,Acu-Link.com,2013-06-05 14:24:00,
2013-06-05 10:40:00,70.3,69.7,30.02,SSE,157,2.7,-999.0,98,-99.99,,,0.00,Acu-Link.com,2013-06-05 14:40:00,
2013-06-05 10:55:00,71.4,70.8,30.01,East,90,2.2,-999.0,98,-99.99,,,0.00,Acu-Link.com,2013-06-05 14:55:00,
2013-06-05 11:10:00,71.2,70.6,30.01,ESE,112,4.7,-999.0,98,-99.99,,,0.00,Acu-Link.com,2013-06-05 15:10:00,
2013-06-05 11:26:00,70.5,69.9,30.01,SE,135,3.7,-999.0,98,-99.99,,,0.00,Acu-Link.com,2013-06-05 15:26:00,
2013-06-05 11:56:00,73.0,72.4,30.00,South,180,3.2,-999.0,98,-99.99,,,0.00,Acu-Link.com,2013-06-05 15:56:00,
2013-06-05 12:11:00,75.9,75.3,30.00,SE,135,4.7,-999.0,98,-99.99,,,0.00,Acu-Link.com,2013-06-05 16:11:00,
2013-06-05 12:27:00,75.6,75.0,30.00,ESE,112,2.7,-999.0,98,-99.99,,,0.00,Acu-Link.com,2013-06-05 16:27:00,
2013-06-05 12:42:00,74.3,73.7,29.99,SSE,157,3.2,-999.0,98,-99.99,,,0.00,Acu-Link.com,2013-06-05 16:42:00,
2013-06-05 12:57:00,73.9,73.3,29.98,ESE,112,3.7,-999.0,98,-99.99,,,0.00,Acu-Link.com,2013-06-05 16:57:00,
2013-06-05 13:12:00,74.3,73.7,29.98,ESE,112,2.7,-999.0,98,-99.99,,,0.00,Acu-Link.com,2013-06-05 17:12:00,
2013-06-05 13:28:00,75.7,75.1,29.99,SSE,157,2.2,-999.0,98,-99.99,,,0.00,Acu-Link.com,2013-06-05 17:28:00,
2013-06-05 13:43:00,77.5,76.9,29.98,ESE,112,3.7,-999.0,98,-99.99,,,0.00,Acu-Link.com,2013-06-05 17:43:00,
2013-06-05 13:58:00,77.0,76.4,29.97,SE,135,6.8,-999.0,98,-99.99,,,0.00,Acu-Link.com,2013-06-05 17:58:00,
2013-06-05 14:13:00,76.3,75.7,29.96,South,180,7.8,-999.0,98,-99.99,,,0.00,Acu-Link.com,2013-06-05 18:13:00,
2013-06-05 14:28:00,74.3,73.7,29.95,South,180,5.8,-999.0,98,-99.99,,,0.00,Acu-Link.com,2013-06-05 18:28:00,
2013-06-05 14:44:00,76.5,75.9,29.94,ESE,112,4.2,-999.0,98,-99.99,,,0.00,Acu-Link.com,2013-06-05 18:44:00,
2013-06-05 14:59:00,74.5,73.9,29.93,ESE,112,5.3,-999.0,98,-99.99,,,0.00,Acu-Link.com,2013-06-05 18:59:00,
2013-06-05 15:14:00,73.4,72.8,29.93,SSW,202,6.8,-999.0,98,-99.99,,,0.00,Acu-Link.com,2013-06-05 19:14:00,
2013-06-05 15:29:00,74.8,74.2,29.92,SE,135,3.7,-999.0,98,-99.99,,,0.00,Acu-Link.com,2013-06-05 19:29:00,
2013-06-05 15:44:00,78.1,77.5,29.91,ESE,112,4.7,-999.0,98,-99.99,,,0.00,Acu-Link.com,2013-06-05 19:44:00,
2013-06-05 15:59:00,75.4,74.8,29.91,SSE,157,3.2,-999.0,98,-99.99,,,0.00,Acu-Link.com,2013-06-05 19:59:00,
2013-06-05 16:15:00,76.3,75.7,29.91,ESE,112,3.2,-999.0,98,-99.99,,,0.00,Acu-Link.com,2013-06-05 20:15:00,
2013-06-05 16:32:00,75.2,74.6,29.91,NE,45,5.8,-999.0,98,-99.99,,,0.00,Acu-Link.com,2013-06-05 20:32:00,
2013-06-05 16:47:00,75.6,75.0,29.90,SSE,157,3.2,-999.0,98,-99.99,,,0.00,Acu-Link.com,2013-06-05 20:47:00,
2013-06-05 17:03:00,74.5,73.9,29.90,SSE,157,5.8,-999.0,98,-99.99,,,0.00,Acu-Link.com,2013-06-05 21:03:00,
2013-06-05 17:18:00,75.4,74.8,29.90,SSE,157,2.2,-999.0,98,-99.99,,,0.00,Acu-Link.com,2013-06-05 21:18:00,
2013-06-05 17:33:00,74.7,74.1,29.91,SSE,157,3.7,-999.0,98,-99.99,,,0.00,Acu-Link.com,2013-06-05 21:33:00,
2013-06-05 17:48:00,73.4,72.8,29.89,East,90,6.8,-999.0,98,-99.99,,,0.00,Acu-Link.com,2013-06-05 21:48:00,
2013-06-05 18:04:00,74.5,73.9,29.88,SE,135,4.7,-999.0,98,-99.99,,,0.00,Acu-Link.com,2013-06-05 22:04:00,
2013-06-05 18:19:00,73.2,72.6,29.88,SSE,157,4.7,-999.0,98,-99.99,,,0.00,Acu-Link.com,2013-06-05 22:19:00,
2013-06-05 18:34:00,70.9,70.3,29.89,SSE,157,2.7,-999.0,98,-99.99,,,0.00,Acu-Link.com,2013-06-05 22:34:00,
2013-06-05 18:49:00,70.7,70.1,29.90,SSE,157,3.2,-999.0,98,-99.99,,,0.00,Acu-Link.com,2013-06-05 22:49:00,
2013-06-05 19:04:00,70.5,69.9,29.89,South,180,5.3,-999.0,98,-99.99,,,0.00,Acu-Link.com,2013-06-05 23:04:00,
2013-06-05 19:20:00,69.6,69.0,29.89,SSE,157,3.2,-999.0,98,-99.99,,,0.00,Acu-Link.com,2013-06-05 23:20:00,
2013-06-05 19:35:00,68.9,68.3,29.90,SE,135,3.7,-999.0,98,-99.99,,,0.00,Acu-Link.com,2013-06-05 23:35:00,
2013-06-05 19:50:00,68.0,67.4,29.90,ESE,112,3.2,-999.0,98,-99.99,,,0.00,Acu-Link.com,2013-06-05 23:50:00,
2013-06-05 20:05:00,66.7,66.1,29.91,SE,135,4.7,-999.0,98,-99.99,,,0.09,Acu-Link.com,2013-06-06 00:05:00,
2013-06-05 20:20:00,65.3,64.7,29.94,ESE,112,3.7,-999.0,98,-99.99,,,0.41,Acu-Link.com,2013-06-06 00:20:00,
2013-06-05 20:35:00,64.9,64.3,29.93,SSE,157,2.7,-999.0,98,-99.99,,,0.50,Acu-Link.com,2013-06-06 00:35:00,
2013-06-05 20:50:00,64.6,64.0,29.94,SSE,157,4.2,-999.0,98,-99.99,,,0.50,Acu-Link.com,2013-06-06 00:50:00,
2013-06-05 21:21:00,63.7,63.1,29.95,SE,135,3.2,-999.0,98,-99.99,,,0.50,Acu-Link.com,2013-06-06 01:21:00,
2013-06-05 21:36:00,63.7,63.1,29.96,ESE,112,2.2,-999.0,98,-99.99,,,0.50,Acu-Link.com,2013-06-06 01:36:00,
2013-06-05 21:52:00,63.5,62.9,29.96,South,180,2.2,-999.0,98,-99.99,,,0.50,Acu-Link.com,2013-06-06 01:52:00,
2013-06-05 22:07:00,63.7,63.1,29.96,SSE,157,4.2,-999.0,98,-99.99,,,0.50,Acu-Link.com,2013-06-06 02:07:00,
2013-06-05 22:22:00,63.7,63.1,29.96,South,180,1.7,-999.0,98,-99.99,,,0.50,Acu-Link.com,2013-06-06 02:22:00,
2013-06-05 22:37:00,63.7,63.1,29.96,SSE,157,0.0,-999.0,98,-99.99,,,0.50,Acu-Link.com,2013-06-06 02:37:00,
2013-06-05 22:53:00,63.7,63.1,29.95,ESE,112,1.7,-999.0,98,-99.99,,,0.50,Acu-Link.com,2013-06-06 02:53:00,
2013-06-05 23:08:00,63.7,63.1,29.95,West,270,1.7,-999.0,98,-99.99,,,0.50,Acu-Link.com,2013-06-06 03:08:00,
2013-06-05 23:23:00,63.7,63.1,29.94,South,180,0.0,-999.0,98,-99.99,,,0.50,Acu-Link.com,2013-06-06 03:23:00,
2013-06-05 23:39:00,63.7,63.1,29.92,WNW,292,1.7,-999.0,98,-99.99,,,0.51,Acu-Link.com,2013-06-06 03:39:00,
2013-06-05 23:54:00,63.7,63.1,29.92,NNW,337,1.7,-999.0,98,-99.99,,,0.55,Acu-Link.com,2013-06-06 03:54:00,